Wind_Speed
5 4 4 3 4 4 4 3 1 3 3 2 6 7 9 10 10 10 10 8 7 6 7 9 8 8 4 3 9 10 8 8 5 4 6 11 19 21 22 25 20 17 18 15 15 15 14 15 14 14 14 13 12 12 12 11 12 11 11 13 13 13 12 12 12 12 11 11 11 11 11 11 11 13 14 13 13 14 14 14 15 16 16 16 16 17 17 17 17 17 17 16 15 15 16 16 15
7 6 5 3 3 2 2 3 2 3 3 5 7 7 9 9 10 10 10 8 7 7 8 8 8 10 4 6 12 9 11 11 10 9 11 20 20 19 23 24 21 19 17 15 14 15 14 15 15 14 14 13 12 12 12 11 12 11 11 12 12 12 12 13 14 13 12 11 11 11 10 11 12 13 14 15 14 14 15 15 15 15 15 15 16 17 16 16 17 17 17 16 16 16 15 15 15
7 3 3 3 3 3 2 3 3 2 4 6 7 7 10 10 11 11 11 10 9 9 9 8 8 7 1 8 12 7 10 12 14 13 12 21 17 16 22 21 22 20 18 16 14 15 14 14 15 14 14 13 12 12 11 11 11 11 11 12 11 13 13 13 14 15 14 11 11 11 11 11 13 13 14 15 14 14 15 16 15 15 14 15 16 16 16 16 16 17 17 17 16 16 15 15 15
6 3 3 3 2 3 2 2 3 2 5 6 6 8 10 11 12 12 11 10 10 9 8 7 7 5 2 9 10 8 11 10 15 14 11 16 16 17 20 19 21 21 18 15 14 15 13 13 14 14 13 13 12 11 12 12 11 11 11 11 12 13 13 13 14 16 16 14 13 13 12 10 12 14 15 15 15 15 16 16 16 15 14 14 15 15 15 15 15 16 16 16 16 16 16 15 14
7 4 3 4 2 1 1 2 2 3 6 6 7 9 11 12 13 12 10 10 9 9 7 6 6 7 7 10 7 6 9 10 15 16 13 17 18 19 18 17 17 20 20 15 14 14 13 13 13 13 13 13 11 10 11 12 11 10 10 11 13 14 14 13 14 15 15 14 13 14 14 11 11 14 15 15 16 16 15 15 16 15 14 14 14 14 14 14 15 15 15 15 15 15 15 15 14
7 3 3 4 3 2 1 3 2 5 7 7 8 9 12 12 13 12 10 9 10 8 6 7 8 10 10 10 9 8 8 10 13 15 16 18 18 18 17 16 14 17 21 18 15 15 14 13 13 13 12 13 12 10 11 11 11 10 10 11 12 13 15 15 15 15 15 15 13 13 15 13 11 12 14 14 15 15 14 13 14 14 13 14 13 13 13 14 15 15 14 14 14 15 15 14 13
4 1 2 3 3 1 3 3 5 6 7 9 9 10 13 12 12 12 11 10 9 6 4 7 9 9 9 9 10 11 11 12 12 14 18 19 18 17 15 14 14 14 16 18 18 17 16 14 13 12 12 13 11 11 11 11 11 10 10 12 13 14 15 16 16 15 14 14 14 13 14 13 12 13 13 14 15 14 14 13 13 13 13 13 13 13 13 13 14 14 14 13 13 15 15 14 13
3 2 1 2 3 1 4 1 7 7 7 10 11 11 12 12 10 10 10 8 7 6 5 8 9 9 9 10 10 10 12 14 15 18 21 20 17 15 14 14 14 13 13 17 17 16 15 13 13 12 12 12 11 11 11 11 11 10 10 11 12 14 15 15 15 14 14 14 14 13 13 12 11 13 13 13 14 13 13 13 12 13 13 13 13 13 13 13 13 13 13 13 13 14 15 15 14
5 3 2 2 2 2 3 3 8 8 9 10 11 12 11 11 10 9 9 8 7 7 6 8 9 10 12 13 11 9 12 17 19 21 20 18 16 14 13 13 13 13 13 15 16 15 13 13 12 12 12 11 11 11 11 11 10 10 10 10 11 11 13 14 13 13 14 14 13 12 13 12 11 13 13 13 15 15 13 13 13 12 12 13 12 12 12 12 12 13 13 13 13 14 15 14 14
4 2 2 1 1 3 4 5 7 8 10 10 11 11 10 9 9 8 8 9 8 8 8 9 10 12 13 13 11 10 13 18 20 19 18 17 15 14 13 13 12 13 13 15 16 15 13 13 12 11 11 11 11 10 11 11 10 10 9 10 10 10 10 12 14 14 13 13 12 10 12 13 12 13 14 15 16 16 15 15 14 13 12 12 12 11 11 11 11 12 13 13 13 14 14 14 13
2 2 2 1 0 3 3 7 7 8 10 10 11 10 8 7 8 7 8 9 8 8 9 8 11 13 14 12 9 12 17 18 19 18 17 16 14 14 13 12 12 13 14 14 15 14 13 12 11 11 11 11 11 10 10 11 10 9 9 9 9 10 10 11 13 14 14 12 11 12 12 13 12 13 14 16 16 15 15 15 15 14 13 12 12 11 10 10 11 11 11 12 13 13 13 14 12
3 1 1 1 2 3 3 8 8 10 10 10 10 8 7 6 7 8 8 9 8 9 7 6 10 11 12 11 8 14 18 17 17 18 17 15 14 13 13 12 12 12 13 14 13 13 13 12 11 11 11 11 10 10 9 10 9 8 8 9 9 9 9 9 11 13 14 12 11 13 13 12 12 13 14 15 15 15 15 16 15 14 12 12 12 11 10 10 11 11 10 11 12 12 13 12 10
3 2 1 1 3 2 2 8 8 9 9 8 10 8 7 6 7 7 7 9 8 8 7 6 9 9 10 11 9 13 16 17 17 16 16 15 14 13 13 12 12 12 13 13 13 13 13 12 11 11 10 9 8 8 8 8 8 8 8 8 9 10 9 9 10 11 13 12 11 12 12 13 13 13 14 14 14 14 14 15 16 15 12 11 12 11 10 10 11 10 10 11 11 11 11 10 9
2 2 1 1 2 1 3 5 7 7 8 8 9 8 6 6 7 6 7 10 8 7 8 7 8 10 11 11 9 10 13 18 17 15 15 14 14 13 13 13 12 12 11 12 13 11 11 11 11 11 10 8 7 7 7 7 7 9 9 9 9 10 11 11 11 11 12 12 12 12 13 13 13 13 13 14 13 14 14 14 15 15 12 10 11 10 9 9 9 9 9 9 10 10 10 9 9
3 2 1 3 1 2 3 3 8 6 6 8 8 7 7 6 6 6 6 8 7 6 8 8 6 7 10 11 9 11 15 20 18 16 16 15 14 13 13 12 11 11 10 10 13 11 10 11 10 10 9 8 7 6 7 7 9 10 10 10 11 10 11 11 11 11 11 12 12 13 14 13 13 13 13 14 13 13 13 13 14 14 13 11 10 9 9 8 8 8 8 8 9 9 10 9 9
3 2 2 2 3 3 3 4 9 6 3 7 7 6 8 7 5 6 4 4 8 7 4 6 5 3 9 12 13 17 20 20 18 16 16 15 14 13 12 11 10 10 9 9 10 10 10 10 10 9 9 7 6 6 6 7 9 10 11 12 12 11 10 10 11 10 11 12 12 15 15 14 14 13 12 14 13 13 13 13 14 13 12 10 8 9 9 8 8 7 7 8 8 9 9 9 8
3 0 2 1 3 4 2 2 5 5 4 8 8 7 8 8 6 5 2 2 8 7 4 7 5 3 8 14 21 23 22 21 19 17 16 15 14 13 12 10 9 9 8 8 8 8 9 9 9 10 9 9 7 5 5 7 7 9 11 12 12 11 10 10 11 11 11 11 12 15 14 14 14 13 13 14 13 12 13 13 13 12 10 8 7 8 8 8 7 7 7 8 8 8 8 8 8
3 0 2 1 3 3 2 1 4 5 5 8 8 7 7 8 7 6 4 4 7 6 6 9 8 8 14 21 24 24 22 21 20 18 16 14 13 12 11 10 9 9 8 8 8 8 9 9 9 9 9 10 8 6 5 6 7 8 9 10 11 12 11 11 11 12 13 12 12 13 11 11 14 13 13 14 13 12 13 13 12 11 8 7 7 8 8 7 7 7 7 8 7 7 8 6 6
2 1 1 1 3 4 3 2 3 4 4 6 9 7 6 8 8 6 6 8 7 7 8 10 13 15 18 22 23 22 21 20 19 18 16 14 12 12 11 10 9 8 9 8 9 9 8 9 9 9 10 10 9 7 6 8 9 9 9 9 10 11 12 14 13 13 14 15 14 14 11 10 13 15 14 13 13 12 12 13 12 10 8 8 9 9 9 8 7 7 7 7 7 6 5 6 5
2 0 1 2 5 5 6 6 2 3 3 6 9 7 5 7 7 5 6 8 7 7 9 11 13 15 17 19 21 21 20 19 18 16 15 13 12 11 10 10 9 8 8 8 10 10 8 9 8 8 9 9 9 7 6 8 10 10 10 9 9 10 12 14 14 14 16 16 15 14 13 11 12 14 15 14 13 13 12 12 11 10 9 10 11 10 9 8 8 8 8 8 7 5 4 7 6
4 2 3 3 6 4 4 7 5 5 6 6 7 7 6 8 7 5 6 7 6 6 9 11 13 16 18 18 19 20 19 18 17 15 14 12 11 10 9 9 9 9 8 8 10 10 9 9 9 9 9 9 8 8 6 7 8 8 8 8 7 8 9 12 13 12 15 17 15 14 13 11 12 13 14 13 13 13 12 11 11 10 9 9 10 9 7 8 8 7 7 6 7 7 5 4 4
5 2 4 4 4 4 4 5 4 3 4 5 7 7 6 7 6 5 6 4 4 6 8 12 14 16 18 18 18 18 17 16 15 14 13 12 11 10 9 9 9 10 8 9 10 11 10 9 9 9 9 9 8 9 7 6 7 7 8 8 8 9 9 12 13 11 15 18 15 14 12 11 12 12 12 11 11 12 11 10 11 10 9 8 9 8 7 7 7 7 6 6 8 7 4 3 3
4 2 4 4 5 3 2 3 3 2 3 5 4 4 6 8 6 5 5 3 3 6 9 13 15 17 18 18 17 16 16 14 14 14 13 12 11 10 10 9 10 10 8 9 10 10 11 10 10 9 9 9 8 9 8 8 8 7 8 9 9 11 12 14 15 14 16 18 16 15 13 12 12 12 12 12 12 11 10 9 9 9 9 8 7 7 7 7 7 6 5 4 4 4 5 4 4
4 2 3 3 3 4 3 2 2 2 3 2 3 1 2 5 4 1 2 2 4 7 9 13 15 17 18 17 16 15 15 14 13 13 13 12 10 10 10 9 9 10 9 9 10 10 11 11 11 10 10 10 9 9 8 8 8 7 8 8 8 10 12 14 16 15 16 18 17 15 14 13 12 11 11 12 11 10 9 9 9 9 8 8 7 7 6 6 6 5 4 3 2 2 3 3 4
3 2 3 4 3 4 4 4 2 1 2 5 7 1 3 3 2 4 4 5 6 8 11 14 15 17 17 16 16 15 14 13 14 13 12 10 9 10 9 9 9 10 10 10 10 10 11 12 11 11 11 10 10 9 8 8 8 9 9 9 9 9 11 14 15 14 14 16 16 15 16 14 12 12 11 10 10 9 9 9 9 9 8 7 7 6 6 5 5 5 4 4 2 1 2 3 2
3 3 2 3 4 5 5 5 3 2 2 6 9 5 6 5 5 5 7 9 7 10 12 14 15 16 15 15 15 14 13 13 13 13 11 9 9 10 9 9 9 10 11 10 10 10 10 11 11 10 10 9 9 9 8 8 9 9 9 10 11 11 11 15 16 15 14 15 14 14 16 16 14 13 12 10 9 9 9 9 9 8 8 7 6 6 5 5 5 4 4 3 2 0 2 3 2
3 3 3 2 4 6 5 5 3 4 4 4 7 6 6 3 2 4 8 10 9 12 13 14 14 16 15 14 14 13 13 13 13 12 11 11 9 9 9 8 9 10 11 11 10 9 10 11 11 11 10 9 9 9 9 9 9 9 9 10 12 12 12 14 17 18 19 16 13 12 12 13 13 12 11 10 9 9 9 9 9 8 7 6 6 5 5 4 3 3 2 2 2 1 1 3 2
4 4 2 1 1 6 6 5 3 3 4 4 9 9 6 5 2 3 6 8 9 12 13 14 14 14 14 14 13 11 11 13 13 12 11 11 10 9 10 8 9 10 10 10 10 10 10 11 12 11 11 10 9 10 9 9 9 9 10 10 10 11 11 12 13 16 19 17 14 12 8 6 9 10 10 10 10 10 9 9 8 7 6 6 5 5 4 4 3 3 3 2 1 2 2 2 3
6 5 2 2 2 3 7 6 3 1 4 10 12 9 5 2 1 2 6 7 8 12 13 14 14 13 13 13 12 10 11 13 12 11 11 10 10 10 10 9 9 10 10 10 10 10 11 12 12 11 11 10 10 10 10 9 9 9 9 9 10 11 10 10 11 11 14 15 13 10 7 5 7 9 9 9 9 10 9 8 7 6 6 5 4 4 4 4 4 4 4 3 1 2 3 2 3
7 6 5 3 4 0 7 5 4 5 6 12 9 4 6 7 4 4 8 7 7 11 13 13 13 13 13 12 11 11 11 12 12 11 11 10 11 11 10 10 10 9 9 10 10 11 11 11 11 11 11 10 10 10 10 9 9 9 9 10 11 11 10 10 11 11 11 12 11 9 8 7 7 9 9 9 9 9 8 7 6 6 5 5 5 4 4 4 4 4 3 3 1 1 2 1 1
8 7 6 4 2 2 4 3 4 6 6 11 6 2 6 6 5 5 7 5 6 10 13 13 13 12 13 12 11 11 11 12 12 13 13 11 11 12 11 11 10 9 10 10 10 11 10 11 11 11 12 11 10 10 10 9 9 9 10 11 10 10 10 10 11 12 12 11 10 9 9 8 8 8 9 7 7 9 8 7 6 6 5 4 5 4 3 4 3 2 2 1 0 0 2 3 2
8 6 7 4 2 0 1 2 4 6 8 8 4 3 7 6 6 6 6 4 6 9 12 13 14 13 12 12 11 11 11 12 13 14 13 12 12 12 12 12 11 10 10 11 11 10 11 11 11 12 12 11 11 10 10 9 9 9 10 10 10 9 10 10 11 12 12 11 11 10 9 8 8 8 8 6 6 7 7 8 6 5 5 3 4 4 3 3 2 1 1 1 1 2 1 4 4
7 6 6 1 4 1 1 4 3 5 9 6 4 5 6 6 6 6 5 5 9 11 12 13 14 14 12 11 11 11 11 12 12 13 14 13 12 13 13 13 12 11 10 11 11 10 11 11 11 13 13 12 12 11 10 9 8 9 9 10 9 9 9 10 11 11 11 12 11 11 10 9 8 8 8 5 5 6 6 7 7 5 4 3 4 4 3 4 3 1 0 2 2 2 2 3 5
4 6 3 6 6 1 2 3 3 5 6 4 6 7 6 8 9 9 8 10 13 12 12 13 13 13 12 11 10 11 11 11 10 12 15 13 13 13 14 14 13 12 11 12 12 10 11 11 10 12 13 12 12 11 10 9 9 9 9 10 9 8 9 9 10 10 11 11 11 11 11 9 9 8 8 5 3 4 4 4 6 5 3 2 3 3 3 4 4 2 1 1 1 3 3 1 2
3 3 2 5 4 2 1 2 1 6 5 3 7 7 7 11 11 10 11 13 14 12 12 12 13 13 13 11 11 11 11 12 11 13 15 14 13 14 14 14 14 13 12 12 12 11 10 10 11 12 12 13 13 11 10 10 10 9 9 9 8 8 8 9 10 10 10 10 11 12 11 10 9 9 8 5 2 4 4 3 4 3 2 2 2 3 4 4 3 1 1 1 1 2 2 1 1
7 5 2 3 2 1 2 1 1 4 6 3 4 5 7 11 13 12 13 14 13 12 12 10 11 12 12 12 11 11 11 12 13 15 16 15 14 14 14 14 14 13 13 13 13 11 11 11 11 12 12 13 13 12 11 11 10 9 10 10 9 8 8 9 9 9 10 10 11 12 11 10 10 9 8 6 3 3 4 4 4 3 2 2 2 3 3 4 3 1 1 1 2 2 2 1 2
9 9 4 5 4 3 5 5 2 3 4 4 8 8 6 8 11 12 13 14 13 13 13 11 11 11 11 12 12 13 11 11 15 17 16 16 15 15 14 14 14 13 14 14 14 13 12 12 12 12 12 13 13 13 12 11 11 10 10 11 10 9 9 9 9 9 9 10 12 12 11 10 10 9 8 6 4 3 3 3 3 2 2 2 1 1 1 2 2 2 1 2 3 2 1 1 2
9 9 7 4 6 2 5 5 2 2 2 5 8 10 12 11 10 11 11 13 14 14 13 13 13 12 11 11 12 13 11 10 13 16 17 18 16 16 15 14 14 14 15 15 14 14 14 13 13 13 13 13 13 13 12 11 11 10 10 10 10 10 10 9 9 9 9 11 12 11 10 10 10 9 8 6 5 4 3 3 3 2 2 2 1 1 1 1 2 2 2 3 3 2 1 1 1
9 7 8 5 3 5 4 3 2 1 3 0 1 3 10 15 13 13 13 13 13 13 14 13 13 12 11 11 12 12 12 12 13 15 17 18 18 17 16 14 15 15 15 15 15 15 15 13 14 13 13 13 13 12 12 11 11 10 9 9 9 10 10 9 8 9 9 11 12 11 10 10 10 9 8 6 5 4 3 2 3 3 2 2 2 1 2 2 2 3 3 2 2 4 3 2 1
9 7 8 5 7 6 4 3 2 3 3 1 2 3 3 8 10 12 13 12 10 12 14 13 12 12 12 12 11 12 13 13 13 14 15 17 18 18 16 15 16 15 15 15 16 16 15 14 15 14 13 13 12 13 12 11 11 9 7 6 7 8 9 8 8 8 9 10 12 11 9 10 9 8 7 6 5 4 3 2 3 3 2 2 2 2 2 3 4 3 2 1 2 6 3 2 1
8 8 9 8 5 4 1 1 3 5 5 4 5 4 2 2 5 8 9 9 8 9 12 12 12 13 12 12 12 12 13 13 13 14 14 15 18 18 17 16 16 16 15 15 16 16 15 16 16 15 14 13 12 13 12 11 11 9 7 6 6 7 8 8 8 9 9 11 11 11 10 10 9 8 7 6 5 4 4 3 2 2 3 2 2 2 3 3 3 3 2 2 1 4 4 3 3
7 9 10 12 12 5 2 2 4 6 5 5 7 5 2 3 7 7 7 8 9 9 11 12 11 11 12 12 13 13 13 13 14 14 14 15 17 18 17 17 17 16 16 16 17 16 16 16 17 16 15 13 13 14 13 12 12 11 10 10 9 9 9 8 9 10 10 11 11 11 10 10 9 7 7 6 5 5 4 4 3 3 2 3 3 2 2 3 3 4 3 2 1 2 4 4 5
6 5 6 9 9 6 5 7 6 6 4 3 6 6 1 4 5 6 8 9 9 10 11 12 10 9 9 10 12 13 13 14 13 14 15 15 17 18 18 17 17 17 16 16 16 16 16 17 18 17 16 14 14 14 14 12 12 12 11 11 10 9 9 8 8 8 9 9 9 10 10 10 9 8 7 6 5 5 5 4 3 3 2 3 3 2 3 4 4 3 2 1 1 2 3 4 5
4 4 3 4 4 7 10 9 7 6 6 5 6 6 3 2 1 4 8 9 10 11 11 11 10 10 11 10 11 13 13 14 13 14 14 15 17 18 19 18 17 17 17 16 16 16 16 18 19 17 16 16 15 15 15 13 12 12 12 11 10 9 9 9 8 8 8 8 8 9 9 10 9 8 7 7 6 5 5 5 4 3 3 3 3 4 4 3 2 2 2 1 1 1 3 3 5
6 5 4 7 6 9 9 8 8 5 5 7 5 5 3 2 3 2 4 5 7 8 9 11 10 11 12 11 12 13 14 13 13 15 14 15 17 19 19 19 18 17 17 16 16 17 17 18 19 18 17 16 16 16 16 14 13 12 12 11 10 10 10 9 9 8 8 8 8 8 8 9 9 9 8 7 7 7 6 5 4 4 4 4 4 4 3 3 2 2 2 3 2 3 3 3 4
6 6 6 7 7 8 7 7 7 4 4 8 6 4 4 1 4 2 3 2 2 3 6 8 10 12 11 11 11 12 13 13 13 14 15 15 17 19 19 19 19 18 17 17 16 17 17 18 18 19 18 17 17 18 17 16 14 13 12 12 11 11 10 9 10 9 8 8 8 8 8 8 9 10 10 9 8 8 7 6 6 5 5 4 4 3 3 3 3 3 4 3 3 3 3 4 5
6 5 7 7 6 5 5 6 4 4 6 9 7 5 4 2 3 4 2 1 3 3 6 4 6 9 10 11 10 9 11 12 13 13 15 18 18 19 19 19 19 18 17 17 17 17 17 18 19 19 18 18 17 19 19 17 16 14 13 13 12 12 11 10 11 11 10 9 9 10 9 9 9 9 10 10 10 9 9 8 7 6 5 4 4 4 4 4 5 5 4 4 3 4 4 5 6
5 6 7 6 5 3 5 6 5 6 8 6 6 6 6 4 2 3 2 3 1 4 5 4 5 6 8 10 11 9 9 11 13 13 13 16 17 18 19 19 19 18 17 17 17 18 18 17 19 20 18 18 18 19 19 19 17 16 15 14 13 13 12 12 12 12 12 11 11 10 10 10 9 9 9 10 11 11 10 9 8 7 5 5 4 4 4 3 4 4 3 3 4 4 4 5 6
6 7 6 5 3 2 5 7 6 7 8 6 5 6 7 2 4 5 4 3 3 4 4 7 7 6 7 9 10 7 3 8 11 12 12 14 14 16 18 18 19 17 17 18 18 18 18 17 18 20 19 19 18 19 19 19 19 17 16 15 14 14 13 13 12 12 12 12 12 11 11 10 10 10 10 10 10 10 11 10 8 8 6 5 5 4 4 3 3 4 3 4 5 4 4 5 6
5 7 5 4 4 4 6 7 7 8 9 8 4 4 4 2 4 1 1 2 6 6 2 6 8 7 8 8 8 5 3 6 9 9 11 13 13 16 18 18 18 18 18 18 17 17 17 17 18 19 19 19 19 19 19 19 19 18 17 16 15 15 14 14 13 13 13 13 12 12 12 11 11 11 11 10 10 10 10 10 9 8 7 7 6 5 5 5 5 5 5 5 6 5 5 6 7
5 6 5 5 6 6 5 6 5 5 6 6 6 3 2 2 3 3 2 2 5 6 4 4 0 5 8 9 8 6 5 8 11 11 13 13 15 17 18 18 17 18 19 18 16 16 17 18 19 18 18 19 19 19 19 19 19 18 18 17 16 15 15 15 14 13 14 13 13 12 12 12 11 11 11 10 10 10 9 9 9 9 9 8 8 7 7 6 7 7 7 7 7 6 6 7 8
4 4 5 7 6 5 6 8 8 6 8 4 5 3 3 4 4 3 1 2 2 4 7 10 9 5 3 8 9 8 5 6 8 8 9 12 17 18 17 18 18 17 19 19 17 16 16 18 19 19 18 19 18 19 19 20 19 18 18 18 17 16 16 16 15 14 14 13 13 13 13 12 11 11 11 11 10 10 10 10 10 10 10 10 9 9 9 8 7 8 8 8 8 8 8 8 8
2 3 5 5 2 5 7 8 8 6 7 5 4 3 6 5 4 5 6 5 3 6 9 11 9 8 5 4 6 7 6 2 3 2 4 10 13 18 18 17 18 18 18 18 18 18 17 16 18 20 19 19 19 19 19 19 20 19 19 19 18 17 17 17 16 16 15 14 13 13 13 14 13 11 11 11 11 11 11 11 11 11 11 11 11 10 10 9 8 9 9 9 9 9 8 8 8
6 2 6 5 1 2 6 6 5 5 7 6 7 7 6 5 4 5 4 6 7 10 11 11 7 7 7 5 4 3 6 4 1 3 2 9 10 14 19 18 18 19 19 19 17 17 17 17 18 19 19 18 18 19 19 19 19 19 19 19 19 18 18 17 17 16 16 15 15 14 14 14 14 13 12 11 12 12 12 12 11 11 11 11 11 12 11 11 10 10 10 10 10 9 8 8 9
10 6 8 7 2 2 4 4 6 7 6 6 9 10 3 2 2 5 2 5 8 10 10 10 8 8 7 6 5 4 3 3 2 3 3 2 7 9 12 15 16 14 13 16 18 17 17 18 18 19 20 20 20 19 18 18 18 19 18 19 19 19 18 18 17 16 16 17 17 16 15 15 15 15 14 13 12 12 12 13 13 12 12 12 12 12 12 12 12 11 11 11 11 10 10 10 10
9 7 6 5 4 4 3 2 5 7 7 6 7 7 1 5 3 3 2 4 7 8 8 8 7 7 5 6 5 5 5 1 3 3 4 3 5 5 11 12 10 7 8 13 16 18 18 17 18 19 20 22 22 19 18 18 18 19 18 18 19 19 18 17 17 17 17 17 17 17 16 16 15 15 15 15 14 14 13 13 14 14 13 14 14 13 13 13 13 12 12 12 11 11 11 11 11
4 5 6 4 3 5 4 3 5 6 6 6 7 4 3 3 0 2 2 4 6 7 7 6 6 7 5 4 4 3 3 2 2 2 2 2 5 2 5 7 3 6 11 17 15 15 16 16 17 17 17 19 20 20 20 19 17 17 18 18 18 19 19 18 18 17 17 17 17 17 17 16 16 16 16 16 16 16 15 15 15 14 14 14 14 14 14 13 13 13 12 12 11 10 11 12 13
5 4 5 5 4 5 5 5 7 6 6 6 7 5 4 4 1 1 2 3 5 7 7 6 6 7 5 3 3 2 2 2 1 1 2 1 4 5 5 5 3 2 6 11 9 7 10 14 14 13 14 16 17 17 19 20 18 17 18 17 17 19 19 19 19 19 18 18 17 17 17 16 16 17 16 16 17 17 16 16 16 15 15 14 14 14 14 14 14 13 13 13 13 12 13 13 14
Wind_Direction
174 191 210 237 267 276 248 230 228 185 221 110 90 89 83 86 99 100 103 113 97 88 98 91 83 75 56 75 80 75 56 50 86 100 91 121 133 135 133 130 137 137 131 136 138 133 130 130 129 128 127 126 123 126 128 125 126 127 129 131 130 130 131 128 124 122 123 121 119 114 111 123 133 128 129 127 120 119 117 115 115 111 108 106 104 103 105 106 104 101 100 98 96 96 94 94 95
197 217 217 254 265 281 270 230 251 184 168 94 84 90 100 96 93 89 92 96 91 108 110 93 81 80 80 83 82 78 67 70 101 98 104 128 132 128 128 129 135 136 134 136 137 130 129 131 131 131 127 125 124 130 133 126 126 129 131 133 131 130 132 131 128 122 114 111 114 117 127 138 133 131 133 126 123 123 119 117 113 110 109 107 106 105 104 105 104 102 100 99 97 96 93 94 95
208 228 216 272 253 227 274 243 252 145 108 91 91 92 102 98 87 84 88 98 111 119 105 92 80 76 35 76 81 83 85 84 100 104 116 130 129 126 129 130 133 133 133 134 134 129 127 129 131 131 127 128 129 130 130 128 128 129 132 135 134 134 137 138 134 125 121 124 131 135 140 138 129 131 131 123 125 122 117 116 112 109 109 109 108 106 104 103 104 102 101 100 99 96 95 95 95
226 258 233 271 259 232 278 250 260 74 91 97 97 94 100 99 95 93 99 115 123 115 101 94 86 86 33 63 80 86 90 89 106 115 124 130 127 128 129 129 131 130 131 132 131 126 124 130 129 129 129 129 131 133 132 133 132 132 137 138 138 139 142 143 137 130 133 143 147 141 134 130 126 131 132 126 126 119 116 117 114 111 110 110 107 106 105 105 105 103 102 102 101 100 98 96 96
242 249 241 258 270 273 305 266 254 65 76 99 102 103 103 102 105 107 116 126 117 104 98 100 99 103 74 54 64 83 94 101 118 124 122 127 127 126 128 127 128 126 128 129 125 122 127 136 131 131 134 131 131 136 135 132 134 140 145 143 143 144 146 145 140 139 143 147 146 135 125 123 128 135 134 128 123 115 115 118 114 112 112 110 106 106 105 107 106 104 103 102 103 101 100 98 97
239 227 229 253 279 335 277 249 135 82 63 91 106 106 106 108 113 116 123 120 104 92 85 98 105 105 86 65 62 67 93 114 125 126 123 128 128 126 127 126 124 121 127 129 125 126 136 140 135 135 136 133 134 138 137 133 136 145 146 144 148 147 149 149 149 150 150 147 139 132 127 129 137 137 132 127 121 115 116 115 113 114 112 110 107 106 105 106 106 105 105 104 103 102 101 100 100
226 207 239 258 260 255 251 247 104 91 68 88 103 105 108 112 116 121 127 120 105 97 86 93 101 103 93 87 79 69 90 116 124 125 126 129 129 129 128 126 122 121 126 126 126 132 140 140 135 136 136 136 139 143 140 138 141 144 141 145 153 150 153 158 156 151 150 145 134 128 127 132 140 135 127 124 120 119 120 116 115 115 112 108 106 104 102 102 104 107 109 108 108 105 104 101 98
195 111 174 264 255 234 259 261 89 94 85 90 97 101 109 112 118 122 122 119 114 116 109 98 95 95 91 94 91 77 90 109 119 125 128 129 131 132 130 127 124 126 124 120 126 134 138 138 134 133 135 137 143 144 139 143 144 143 143 144 152 157 162 162 156 151 148 143 135 130 130 134 137 130 123 119 118 116 116 116 114 113 111 108 105 103 101 99 102 107 109 110 110 108 107 101 96
170 140 188 246 299 321 256 123 95 100 99 99 99 102 110 112 119 120 116 116 119 124 113 98 97 102 100 97 97 95 99 108 119 127 130 132 134 133 130 131 129 130 124 121 127 131 132 133 130 127 130 135 140 142 143 149 144 145 154 151 152 161 164 161 154 149 148 144 138 135 133 135 133 125 122 118 117 118 120 120 116 112 110 108 106 103 102 102 103 107 110 111 110 109 107 103 98
178 180 249 237 13 293 229 122 105 107 105 107 104 107 107 110 121 119 117 118 124 124 106 98 106 113 109 101 100 108 113 118 124 129 133 134 134 133 133 133 133 132 126 123 129 132 133 132 129 127 128 131 134 138 145 148 146 152 162 159 156 157 159 156 151 144 146 146 139 132 128 134 135 128 127 123 121 125 130 128 122 116 111 108 104 103 103 106 107 108 112 112 109 107 106 105 100
227 197 228 252 320 266 198 120 115 112 108 109 105 105 102 111 121 114 115 116 124 123 116 118 113 110 108 101 100 116 122 126 128 131 134 135 135 135 134 134 135 132 127 126 129 132 133 134 134 134 133 132 133 138 148 150 153 162 164 164 157 155 158 153 151 147 147 149 144 135 130 135 134 129 127 125 125 128 131 127 120 117 115 113 109 105 102 105 108 108 110 110 107 106 108 106 102
268 208 141 261 251 252 160 116 117 118 117 117 109 106 108 116 113 112 118 121 134 128 119 126 119 116 114 109 111 125 129 131 132 134 137 137 137 136 134 135 135 129 127 129 129 130 132 134 133 135 136 134 138 141 148 153 154 166 167 164 159 156 154 149 154 153 150 155 153 138 133 135 130 128 125 124 128 129 130 124 120 118 117 116 110 104 100 105 108 108 109 108 106 108 108 106 103
284 291 150 206 205 276 58 111 126 125 122 116 111 113 119 113 100 106 119 123 129 127 118 113 126 126 116 115 126 133 134 136 138 139 139 138 136 136 137 136 134 128 129 130 128 131 131 134 134 134 133 130 142 146 147 154 158 169 170 165 161 159 154 156 162 157 153 157 156 140 134 135 129 129 126 126 130 130 130 124 120 117 115 111 106 106 108 109 110 111 110 109 110 110 106 104 103
243 247 217 308 171 131 18 119 134 123 114 109 116 123 122 105 94 102 123 122 110 116 120 116 128 120 115 126 136 140 140 141 142 142 140 137 137 138 139 137 135 131 132 131 129 135 135 135 138 135 131 129 145 155 157 169 175 173 171 167 167 167 162 162 164 161 160 158 156 143 134 134 130 129 129 129 131 131 129 122 118 117 117 109 105 108 109 111 114 117 113 110 111 109 105 103 100
248 259 104 353 8 101 353 44 87 92 107 113 124 128 115 99 100 102 106 115 109 110 118 127 139 126 139 148 144 146 144 143 144 143 141 138 139 138 136 137 137 135 137 136 132 136 137 133 135 134 131 133 151 163 167 180 184 176 171 171 174 176 173 167 161 161 162 157 152 139 135 138 131 129 130 130 129 128 126 119 118 118 117 111 112 116 117 118 118 121 118 115 113 109 107 103 98
272 332 58 21 355 37 348 20 78 96 125 125 136 137 119 108 103 90 81 130 129 120 129 139 139 144 157 150 138 143 144 143 144 143 141 138 138 137 137 139 140 139 142 141 133 132 132 130 132 135 136 141 165 174 164 175 182 178 175 175 178 180 181 173 159 160 160 156 148 138 143 145 132 129 132 130 128 127 125 121 119 117 116 118 127 132 133 131 128 131 127 121 119 116 110 102 95
278 338 46 36 27 38 318 330 87 117 139 135 149 155 133 122 111 98 110 161 119 112 131 128 125 143 134 128 131 140 143 142 145 145 141 141 142 142 143 145 145 145 147 142 131 127 127 130 132 134 140 147 169 183 163 173 176 176 180 179 181 178 179 169 155 160 158 153 142 134 145 143 130 133 134 130 131 130 128 125 121 119 119 130 143 143 141 140 144 144 135 130 126 121 111 102 92
275 5 38 20 63 64 245 335 87 133 141 135 160 173 142 134 130 135 151 119 109 115 120 114 111 107 106 119 132 139 143 144 148 148 145 151 152 150 149 154 159 153 150 142 133 133 132 133 135 135 142 147 163 181 170 172 169 167 179 179 175 172 170 156 145 155 154 147 138 134 145 141 132 136 130 129 134 135 132 128 125 125 124 133 141 144 145 147 153 150 144 136 131 126 118 122 107
268 60 59 290 88 104 136 80 66 120 137 151 170 179 151 139 137 158 158 129 139 140 129 123 113 110 114 126 135 140 145 150 153 151 152 157 156 154 153 159 163 153 151 148 139 140 139 138 142 141 144 149 158 180 176 163 168 173 175 175 173 168 164 153 149 158 155 150 146 144 150 142 139 138 132 137 141 136 133 129 125 122 118 118 121 127 135 143 149 148 146 134 133 135 140 177 179
289 125 164 128 113 104 103 112 102 107 151 183 169 170 162 142 141 169 162 138 153 152 141 136 126 128 131 135 139 144 150 154 156 156 156 157 157 155 153 158 158 154 154 149 140 140 143 142 145 144 146 153 155 178 186 165 173 181 171 171 175 167 160 152 151 161 156 154 150 147 150 144 144 143 140 146 142 135 133 129 124 120 115 111 108 110 119 131 137 140 141 139 147 164 191 202 184
303 330 359 63 107 102 104 126 142 152 179 194 164 168 167 145 147 167 166 151 151 160 153 140 138 140 138 142 145 148 154 157 159 160 157 156 159 156 152 158 154 155 156 142 138 141 144 145 145 145 147 153 155 167 184 171 167 171 164 169 172 159 151 139 141 153 147 148 149 145 151 147 147 147 142 143 141 141 142 139 136 135 130 118 113 120 128 128 137 153 158 172 198 202 205 197 166
296 355 26 3 60 102 131 114 117 161 187 193 172 174 166 143 147 176 184 162 137 159 156 142 142 143 143 146 148 151 156 159 161 159 157 157 160 155 149 154 150 150 153 141 138 141 146 148 146 148 148 151 156 157 168 172 159 162 164 166 164 149 142 134 138 148 138 142 147 144 152 150 147 146 142 144 146 148 150 150 146 144 145 137 130 145 156 146 156 179 193 213 219 200 169 145 161
304 26 53 6 11 45 80 91 128 186 204 194 172 181 175 152 154 198 197 99 120 175 152 139 141 145 147 147 150 155 157 159 160 157 159 160 158 155 151 154 152 148 150 144 140 144 149 148 146 146 146 149 155 153 159 166 163 170 166 165 163 148 143 138 141 152 148 148 149 145 151 153 147 144 144 146 143 148 154 151 146 144 146 147 144 150 161 164 169 179 187 205 211 179 148 156 167
283 341 24 10 13 23 11 27 147 188 217 162 63 330 191 154 155 208 271 68 148 176 141 134 140 147 148 148 154 153 155 159 157 160 162 159 157 155 154 154 150 144 147 148 144 150 153 146 143 141 143 149 151 154 160 161 163 166 162 167 161 144 144 141 141 154 159 155 152 148 150 154 154 150 148 142 139 149 152 145 145 145 144 143 145 151 158 164 167 167 168 170 173 165 147 153 161
274 336 16 339 358 50 14 352 26 74 208 106 93 122 71 77 107 80 277 247 164 160 141 137 143 148 150 152 155 152 156 159 159 163 156 152 155 152 154 152 148 145 148 149 147 150 149 143 143 143 145 149 148 153 158 157 160 160 161 164 157 152 151 145 142 147 155 156 155 156 156 160 161 153 150 144 143 148 144 143 144 141 140 141 147 153 154 164 171 167 167 159 149 187 142 138 171
341 336 62 338 346 40 25 16 38 96 123 110 117 131 96 105 136 122 249 245 168 160 148 142 148 149 152 155 153 152 155 159 163 157 145 148 156 154 155 155 153 149 149 149 147 146 143 140 141 142 142 144 145 149 152 152 157 158 160 159 157 162 157 149 148 146 150 154 154 158 165 171 162 149 150 149 145 141 140 143 139 137 140 142 148 151 154 171 175 159 162 154 142 239 137 152 209
340 299 84 28 359 36 29 36 69 114 83 110 137 126 90 77 144 153 241 239 177 162 148 147 155 151 154 155 150 153 157 161 161 150 148 154 157 160 158 163 158 145 148 149 144 144 144 140 139 139 140 141 143 145 148 149 152 152 153 155 156 158 152 151 154 152 152 150 151 158 175 182 162 148 150 146 143 140 141 140 136 141 139 140 148 153 163 170 172 149 136 113 126 184 135 164 198
281 257 132 135 33 41 35 44 68 130 91 115 133 116 71 7 356 154 228 230 182 159 149 155 158 152 155 153 148 155 160 159 155 151 156 156 159 164 159 167 159 143 150 148 141 148 147 140 138 140 141 142 144 144 147 148 149 148 148 152 149 147 150 150 147 149 149 147 154 163 173 173 146 143 145 143 144 140 141 138 136 143 138 144 152 157 164 162 164 139 133 138 163 220 156 169 197
249 242 223 208 187 43 38 47 42 83 126 129 123 112 115 158 155 219 255 251 197 163 155 161 158 153 155 151 151 158 160 155 154 159 162 161 163 161 161 168 157 146 149 143 145 154 146 138 138 139 140 143 145 142 144 147 146 146 146 144 140 142 148 143 136 137 141 144 154 161 157 134 126 137 140 142 144 139 140 138 138 143 140 151 152 154 164 167 173 158 163 170 185 243 165 181 196
252 240 242 247 217 310 30 38 62 65 123 143 143 137 153 176 191 246 257 265 228 176 158 164 159 155 156 154 157 159 158 156 158 165 165 166 164 156 160 163 154 148 144 144 154 154 142 139 142 142 143 144 142 137 140 144 144 145 143 139 139 142 141 136 134 135 138 145 150 150 144 134 132 137 140 144 143 137 139 141 143 144 148 160 158 168 177 167 168 164 167 154 153 240 156 161 160
252 243 238 246 240 301 354 6 77 85 136 161 186 185 138 177 190 221 247 261 245 192 162 165 161 158 160 157 161 159 157 163 165 166 165 166 160 153 159 157 151 148 146 152 154 149 142 143 146 144 145 144 137 134 138 142 143 144 143 141 142 141 140 137 137 139 142 145 146 145 143 139 138 139 142 145 143 142 142 145 146 145 157 167 163 181 193 167 156 147 136 125 111 71 142 149 115
243 245 242 229 126 285 275 50 76 110 144 171 200 135 134 181 185 195 230 228 239 207 169 167 164 161 164 160 163 160 157 167 170 164 162 164 157 153 156 153 152 152 153 153 149 151 146 143 148 146 147 145 137 134 135 139 140 141 141 142 143 142 142 141 141 143 145 146 146 146 145 143 142 141 143 141 144 151 148 148 143 140 160 169 162 176 198 170 138 57 42 49 44 20 227 165 132
233 240 256 329 70 147 126 36 3 123 133 173 166 125 149 181 191 197 202 205 226 209 174 172 168 162 168 165 163 162 159 168 172 163 159 163 156 154 155 153 155 155 155 152 151 157 147 145 154 148 146 144 138 135 134 136 139 141 143 142 145 147 145 142 144 146 147 148 147 146 147 146 145 143 144 145 152 155 150 149 143 140 161 167 164 183 197 161 135 200 135 57 24 337 293 162 141
226 234 279 28 38 46 90 6 286 141 128 169 133 130 164 161 178 196 191 205 216 198 176 177 170 164 171 170 167 167 163 166 170 163 161 162 157 154 153 152 155 154 155 156 156 160 149 148 153 144 146 145 139 138 136 138 141 144 146 144 147 150 147 144 144 145 147 148 144 145 148 148 148 147 147 146 145 146 140 130 128 139 158 156 174 193 188 147 146 200 159 73 340 329 332 74 140
288 262 353 39 32 2 30 347 224 144 127 125 119 126 155 153 168 194 190 199 208 190 179 181 172 169 172 171 174 171 167 168 168 168 166 161 159 157 154 153 155 156 159 158 156 159 152 149 146 142 149 147 141 141 140 140 144 151 149 145 151 155 150 146 146 148 149 147 144 145 148 150 152 152 153 151 140 147 148 123 123 150 164 157 191 194 178 149 146 191 74 65 300 301 304 17 116
294 281 298 73 54 255 159 78 33 119 103 109 149 142 158 163 168 190 192 189 200 188 178 185 177 171 174 175 175 172 176 173 165 171 170 161 163 161 155 157 157 158 158 156 157 159 156 153 147 148 154 150 145 147 149 149 151 156 152 148 155 157 151 149 152 153 150 146 145 148 151 154 155 156 160 163 166 158 154 144 142 163 160 158 198 194 175 150 152 192 14 293 298 267 238 198 156
279 279 263 140 166 215 124 100 78 77 82 180 193 162 168 187 175 186 193 185 196 193 179 184 183 176 179 178 173 171 179 177 165 170 170 163 166 164 159 161 159 158 156 156 163 163 161 160 154 155 158 155 154 155 159 160 157 158 157 156 159 156 154 156 158 157 152 145 146 152 155 156 157 161 167 169 171 163 155 149 149 165 161 153 172 183 132 121 165 224 263 256 273 259 228 198 146
271 277 274 200 180 167 95 96 102 55 321 205 180 167 173 190 192 187 193 193 194 192 183 183 185 183 184 180 175 172 175 177 168 168 171 167 168 166 162 163 162 160 159 163 168 165 165 166 160 161 161 160 163 162 164 163 160 162 161 162 159 155 157 162 163 158 152 145 148 156 158 157 160 164 170 171 168 173 177 165 158 168 161 152 159 164 151 141 206 236 247 260 275 259 232 20 82
272 262 272 264 151 136 140 144 141 331 308 35 120 212 171 169 182 182 188 200 195 189 190 187 184 184 187 184 177 174 174 177 173 171 173 171 168 167 165 165 166 163 164 168 169 166 168 168 164 167 165 165 168 165 166 165 163 166 163 162 159 156 161 163 159 155 153 151 153 159 158 159 164 167 172 175 173 179 186 173 170 169 157 166 169 170 177 181 220 237 250 270 310 282 230 135 122
262 259 270 254 159 175 203 158 183 261 280 320 322 282 146 144 172 178 184 195 190 189 192 189 188 187 190 191 181 179 177 176 178 175 176 173 168 168 168 169 167 165 168 170 170 170 171 169 168 171 168 168 170 167 169 165 162 165 158 156 155 153 157 155 153 155 155 155 158 162 161 162 169 172 173 177 176 175 181 183 177 169 167 180 170 176 193 195 211 227 257 258 312 293 263 124 130
244 247 270 274 221 204 284 127 213 239 223 237 264 234 142 136 195 183 179 188 185 190 192 189 191 188 189 195 189 186 182 176 179 179 179 176 170 170 171 171 169 169 172 173 173 172 172 171 170 172 171 172 170 168 170 165 161 164 158 153 150 150 157 160 164 165 159 159 165 166 165 167 173 173 172 178 179 171 181 191 183 180 183 193 185 190 202 198 206 206 226 248 291 329 344 2 313
250 232 238 265 278 291 354 287 251 253 220 207 251 256 164 188 219 202 176 188 192 189 194 192 191 190 192 197 193 190 186 179 181 182 181 179 174 171 172 174 173 172 174 175 174 173 172 170 170 172 173 174 172 169 171 169 167 170 167 166 166 165 169 172 175 172 164 166 172 169 167 170 174 175 175 178 178 174 184 188 189 203 189 190 198 201 208 195 203 195 183 241 279 26 352 328 306
261 242 224 245 277 287 276 274 266 268 276 200 228 271 281 166 225 227 184 190 202 192 196 197 192 194 200 205 198 191 187 184 184 184 183 182 176 172 173 179 178 174 175 175 172 172 170 168 170 173 173 175 174 171 172 172 173 175 176 178 178 176 176 175 177 175 169 172 174 169 171 174 176 181 180 180 180 174 185 190 192 213 197 193 201 202 217 200 192 182 159 242 356 44 315 313 323
266 30 333 277 277 262 258 268 264 262 293 281 236 255 272 128 293 239 185 186 203 197 196 197 197 200 202 213 212 198 192 187 184 185 186 183 177 174 177 181 181 177 175 174 170 168 168 168 171 173 173 176 176 175 175 175 177 178 181 184 182 181 182 177 177 178 174 176 176 173 176 178 180 187 185 183 188 184 191 199 199 212 207 203 206 201 215 209 172 151 154 222 249 273 273 300 323
285 20 314 282 266 254 258 265 264 270 296 286 251 240 257 142 118 211 202 204 209 211 206 193 198 207 202 209 217 210 200 190 187 187 185 185 181 179 179 180 184 181 174 175 172 165 166 168 171 173 173 177 176 176 179 179 181 181 183 188 185 184 189 181 180 183 177 177 179 178 181 182 183 192 196 191 195 196 199 205 205 211 210 206 215 211 200 191 176 176 198 220 229 250 265 280 296
316 346 280 272 267 254 258 260 268 293 280 274 261 242 266 198 131 143 263 251 171 251 249 207 202 212 208 209 219 223 211 192 191 191 183 186 187 182 181 181 184 184 175 175 172 164 166 168 171 175 174 177 178 178 181 183 184 185 187 191 188 187 190 181 182 188 184 183 186 186 186 190 190 196 202 202 202 202 202 208 210 209 212 210 215 220 203 193 196 205 217 224 235 255 269 271 273
316 299 248 241 239 239 250 252 271 283 256 263 268 261 278 262 144 137 188 115 114 216 254 239 216 218 218 216 216 229 231 204 192 194 185 185 189 186 185 182 184 186 177 175 173 166 169 169 171 177 176 178 179 179 183 185 186 189 190 192 191 191 190 182 185 191 188 188 192 193 192 197 202 201 203 204 206 208 207 211 215 211 213 214 214 220 221 216 210 209 213 217 234 249 261 274 273
270 255 242 225 209 221 257 241 228 247 254 257 260 274 284 261 145 94 68 51 79 232 246 255 250 233 225 225 214 209 237 228 200 192 189 185 187 188 187 184 185 185 177 178 181 171 169 171 171 176 178 180 181 181 184 186 188 190 192 194 194 194 194 189 188 189 187 191 193 194 195 198 206 208 206 205 205 208 208 209 215 215 212 212 217 225 229 237 230 215 210 220 235 235 246 269 270
243 245 242 236 216 210 246 240 222 237 249 232 230 266 275 261 68 35 7 3 305 262 212 208 221 229 222 227 226 202 217 246 217 197 192 185 185 189 188 186 183 183 181 183 186 177 169 170 172 176 180 181 182 184 186 188 190 192 192 195 195 194 196 194 192 190 190 192 193 194 196 198 203 208 211 211 208 207 206 208 213 214 213 214 217 225 227 238 244 234 235 239 242 240 243 258 265
227 240 227 228 234 229 240 241 231 243 240 205 183 272 260 119 85 58 345 317 283 280 209 189 197 202 214 219 224 207 182 240 233 215 203 188 183 188 188 186 181 182 187 187 187 180 168 168 176 179 181 182 184 187 189 190 192 194 194 194 194 193 196 197 196 196 195 194 196 198 202 202 204 208 212 212 212 212 209 208 212 214 216 216 216 221 222 223 229 235 244 246 244 247 250 256 262
225 246 246 241 246 253 267 264 252 280 274 197 169 239 274 99 125 158 157 180 271 300 28 35 29 174 201 207 196 191 198 220 218 214 214 194 183 189 187 185 183 184 188 189 191 185 172 172 178 180 182 184 187 189 192 194 194 196 196 196 196 195 197 199 199 202 202 199 200 202 206 209 208 208 211 211 211 216 216 210 210 215 217 218 218 220 222 223 226 231 238 245 248 247 248 254 260
234 233 240 244 259 272 274 281 286 307 308 258 186 188 78 97 131 105 343 248 292 332 53 49 18 33 162 183 170 165 180 229 218 205 228 210 186 188 188 184 185 187 189 190 192 192 185 178 176 180 184 185 189 192 193 196 197 198 198 198 199 197 197 199 200 205 208 204 202 204 207 212 214 209 206 208 208 211 217 215 213 215 215 217 221 220 223 225 223 230 235 238 246 247 246 249 254
271 213 249 259 296 313 287 283 290 283 277 262 211 165 113 127 131 68 338 311 17 14 52 63 34 26 52 123 140 146 145 229 265 118 277 256 207 190 190 189 189 189 191 193 193 194 192 185 179 181 185 186 191 195 195 197 198 199 201 200 201 201 200 201 201 204 209 208 205 206 207 208 214 215 208 206 208 208 212 215 218 220 216 216 221 219 222 224 221 228 234 235 242 248 249 249 253
268 246 328 319 78 308 291 286 288 268 255 253 245 227 168 162 157 92 356 331 15 25 45 61 51 38 36 54 74 123 138 159 216 108 198 270 257 211 195 190 194 195 193 193 196 195 192 194 191 185 185 190 195 197 198 199 199 201 202 202 203 204 203 206 206 204 206 209 208 208 210 208 208 212 213 211 210 208 209 213 218 221 218 216 220 219 220 222 222 227 232 234 239 244 249 251 252
261 300 332 310 256 239 252 262 273 265 259 260 257 249 208 105 106 110 67 348 11 16 36 49 45 39 17 22 48 42 81 136 181 96 121 259 312 285 237 206 196 200 206 198 194 197 199 200 198 190 188 194 199 201 201 198 199 203 203 202 205 207 208 209 210 207 206 209 210 209 211 212 209 209 213 217 217 213 209 210 214 219 220 217 217 219 220 218 221 226 230 235 236 232 239 251 252
237 271 274 251 262 278 253 258 278 278 280 273 256 250 80 54 62 100 38 9 26 18 28 40 47 57 22 354 23 35 38 59 201 126 94 86 49 334 276 246 207 199 251 235 205 196 202 205 205 200 193 195 199 198 198 200 203 205 203 201 203 206 210 212 212 211 209 210 213 213 213 214 214 212 211 213 217 219 215 212 214 217 220 219 217 218 221 219 220 225 229 237 237 225 226 241 250
230 248 250 234 248 274 279 270 251 256 272 272 270 271 94 84 279 95 33 4 30 30 37 38 38 61 59 4 4 16 47 29 260 168 114 44 55 65 260 270 238 187 229 242 221 197 199 205 209 207 198 201 204 194 191 196 205 211 208 202 202 205 207 211 213 214 214 214 214 215 217 216 216 217 217 215 214 218 220 218 219 221 221 222 220 219 222 222 222 224 228 235 237 228 226 235 245
312 296 286 287 278 277 282 266 247 242 254 261 268 269 121 125 251 81 52 0 30 34 38 47 43 49 53 42 23 355 73 80 269 185 128 52 13 358 343 350 347 220 226 243 237 210 208 208 209 210 207 209 211 205 197 191 196 212 215 207 204 205 206 210 213 214 215 216 215 215 216 217 217 217 217 219 217 217 220 221 223 224 225 225 221 219 224 226 224 223 225 230 232 230 232 239 247
Height
773 775 774 775 773 774 773 776 791 788 785 786 775 779 780 767 769 775 779 777 777 774 763 765 764 770 781 782 782 784 785 789 797 802 809 803 797 803 805 807 809 808 811 812 813 814 815 816 816 816 817 818 818 819 819 820 821 821 821 822 822 824 824 824 824 825 826 826 828 828 828 829 831 831 830 831 832 833 834 834 833 832 833 833 833 834 834 834 835 835 835 835 836 835 835 836 836
774 775 773 775 771 778 779 777 796 789 781 786 777 778 776 767 772 777 778 777 777 770 761 763 764 770 773 770 777 782 784 784 784 788 791 793 798 802 804 808 809 809 811 812 814 815 815 816 816 817 817 819 819 820 820 821 822 822 822 823 823 824 824 824 825 825 825 827 828 829 830 831 832 831 832 833 833 833 834 834 834 834 835 835 835 835 835 836 836 836 837 837 837 837 837 837 837
775 775 773 776 771 776 777 780 793 781 780 790 784 774 769 775 779 778 775 774 771 763 762 765 768 775 776 777 783 788 788 781 778 783 787 793 798 800 805 808 809 811 811 813 814 814 815 816 817 817 818 819 820 821 822 823 823 823 823 823 824 824 824 825 825 825 826 828 830 831 832 833 833 833 833 834 834 834 834 834 834 836 836 836 836 836 837 837 838 838 838 839 839 839 839 839 838
774 775 774 775 775 778 781 790 786 772 782 789 787 776 769 779 778 777 774 770 764 761 766 769 775 776 778 785 783 785 788 782 781 785 788 793 796 800 803 806 809 811 812 813 814 814 815 816 817 818 819 820 821 822 823 824 825 825 824 824 824 824 825 826 826 827 827 829 831 832 833 834 833 834 834 834 835 834 834 834 834 836 837 838 838 838 838 839 839 839 840 841 841 841 841 841 840
774 776 775 775 781 782 785 793 777 772 782 780 787 779 771 776 775 777 772 767 762 764 768 770 779 774 774 780 778 787 789 784 784 784 788 793 796 799 801 805 807 809 812 813 813 814 815 817 818 818 820 821 822 823 824 825 825 825 825 824 825 825 826 827 828 828 829 830 831 832 833 835 835 834 834 835 835 834 835 835 835 837 838 839 839 839 840 840 841 841 842 842 842 842 842 843 842
773 775 774 775 779 776 790 796 776 778 774 767 782 777 770 772 772 775 771 767 763 765 766 768 776 775 780 779 776 782 783 784 785 784 788 793 797 800 802 804 806 809 811 813 814 815 817 818 819 820 821 822 824 825 826 826 826 826 825 825 825 826 826 827 828 829 830 831 832 834 834 835 836 835 835 835 835 836 837 837 837 838 840 840 840 840 841 842 842 842 843 843 844 843 844 844 844
773 776 777 781 781 777 796 792 773 781 771 762 775 772 770 770 768 772 772 772 771 769 767 767 768 776 787 782 782 782 779 783 783 786 790 794 798 800 802 803 805 808 810 814 816 817 819 820 820 822 822 824 825 826 827 827 827 826 826 825 826 826 827 827 828 830 832 832 833 834 835 836 837 836 836 836 837 837 838 839 840 840 841 841 841 841 842 842 843 844 844 844 845 844 845 845 845
772 779 782 790 792 787 795 783 771 779 772 763 766 768 769 768 768 771 775 776 778 776 771 768 766 783 790 780 791 788 781 785 784 790 792 795 799 800 803 803 805 807 810 813 817 818 819 820 821 823 824 825 826 826 827 827 827 827 826 826 826 827 827 828 830 832 833 833 834 834 835 837 838 838 837 838 838 839 840 841 841 841 841 842 842 842 842 843 843 844 845 845 846 845 846 846 846
770 778 783 793 800 802 795 780 776 776 773 769 767 768 766 765 768 772 776 777 777 776 774 770 769 787 791 785 795 789 784 788 788 792 794 797 799 801 803 804 806 807 810 813 817 818 819 821 822 823 824 825 826 827 827 827 827 827 827 826 827 828 829 830 831 833 834 834 834 836 836 838 840 839 839 839 838 839 841 842 842 842 842 843 843 843 843 844 844 845 846 846 846 846 846 846 847
771 778 785 796 804 812 795 778 780 777 774 771 769 769 766 766 768 771 776 778 776 777 775 768 772 784 788 791 795 789 788 790 791 794 795 798 799 801 804 804 806 807 810 813 816 818 819 821 822 824 825 826 827 827 827 828 828 828 827 827 827 828 829 830 832 833 834 834 835 837 838 841 843 840 840 839 839 839 840 841 842 842 843 843 844 845 845 845 846 846 847 847 847 847 847 847 848
778 779 784 799 809 815 793 779 783 779 775 771 772 769 767 766 768 772 774 777 775 776 775 770 778 782 786 795 794 789 790 791 793 795 797 799 801 802 804 805 807 808 811 813 816 818 819 821 822 824 825 826 827 827 828 828 828 828 827 827 828 828 829 830 832 834 834 835 835 837 840 844 845 842 840 840 840 839 840 841 842 842 842 843 844 845 846 847 847 847 847 847 848 848 847 848 848
782 783 789 806 811 806 781 777 783 780 779 776 778 772 766 767 771 776 776 779 776 778 776 773 779 779 790 799 793 789 789 793 795 796 799 800 802 803 805 806 808 809 812 814 816 818 820 821 822 824 825 826 827 828 828 828 828 827 828 828 828 828 829 831 832 834 835 836 836 839 842 845 846 843 841 840 840 840 841 842 843 843 843 843 844 845 847 848 848 848 848 848 848 848 848 848 849
782 788 798 805 800 796 779 778 782 781 785 780 779 773 766 770 774 775 775 778 776 782 779 770 771 775 792 797 791 790 791 794 796 798 800 801 803 804 806 807 809 811 812 814 816 818 820 822 823 824 825 826 826 827 827 828 827 827 828 828 828 829 830 832 833 835 836 837 838 841 843 845 845 843 841 841 841 841 842 843 844 844 844 844 844 846 848 848 849 849 849 849 849 849 849 849 849
777 783 794 800 795 796 787 781 780 785 791 780 776 772 769 773 773 771 773 780 780 779 773 765 766 778 793 795 795 793 791 795 796 799 800 802 804 805 807 808 810 812 813 815 817 819 820 822 823 824 825 826 826 826 827 827 827 827 828 829 829 829 831 832 833 835 837 838 840 842 843 844 845 843 842 842 842 842 842 844 844 844 845 845 845 847 848 849 850 850 850 850 850 849 849 849 849
765 770 785 802 799 798 793 789 788 795 794 781 777 772 773 773 769 771 773 781 782 768 765 765 765 781 792 794 799 792 790 794 796 800 801 803 805 806 808 808 811 812 814 815 817 819 820 822 823 825 825 825 826 826 828 827 827 828 828 830 829 830 831 832 833 836 838 839 841 843 843 844 845 844 843 843 843 843 843 844 845 845 846 846 847 848 849 850 850 851 851 850 850 850 850 850 850
753 765 790 802 798 802 804 797 796 803 796 782 776 772 778 776 768 775 772 771 776 765 767 772 767 775 781 783 789 787 790 794 796 800 801 804 805 807 808 809 811 812 814 815 817 819 820 823 824 825 825 825 825 825 828 827 827 827 828 829 829 831 831 832 834 837 840 840 842 843 843 843 844 844 844 844 844 844 844 845 845 846 847 848 848 849 850 850 851 851 851 851 850 850 850 850 850
749 768 796 801 798 808 809 798 795 800 792 781 777 773 781 782 772 773 767 764 773 772 771 771 767 768 770 775 782 785 791 794 797 800 801 805 805 807 808 809 811 811 814 815 817 819 821 824 824 825 825 826 825 825 827 826 827 827 828 829 830 832 833 835 838 839 840 841 842 842 842 843 844 843 843 844 844 845 845 846 846 847 848 849 849 849 850 850 851 851 851 851 850 850 850 850 850
757 777 798 801 800 805 801 794 788 787 787 783 780 775 779 784 779 773 771 774 776 777 774 770 769 768 769 776 782 787 792 794 797 799 801 804 804 806 807 809 810 811 813 815 818 820 822 824 825 826 826 827 826 825 826 827 827 827 828 829 831 834 835 838 839 839 840 842 843 842 842 843 844 844 843 843 845 846 846 847 847 848 849 849 850 850 850 851 851 851 851 851 851 851 850 850 851
763 784 804 803 797 795 789 787 783 781 785 784 780 775 776 780 779 774 780 786 782 783 781 775 777 777 776 780 784 789 791 794 796 797 800 801 803 804 805 808 809 810 812 815 818 820 821 823 825 826 826 827 827 826 827 827 828 828 829 830 831 834 837 839 839 839 840 841 842 842 842 843 845 844 844 844 845 847 847 847 848 848 849 850 850 850 851 851 852 852 852 851 851 851 850 850 851
757 772 798 798 785 784 782 784 783 780 782 782 779 775 776 777 775 776 782 787 785 786 783 780 785 784 782 783 784 789 791 793 794 796 798 800 801 802 804 806 808 810 812 814 817 820 821 822 824 825 827 827 827 826 826 827 828 828 829 830 832 834 836 839 839 839 840 841 841 842 842 844 845 845 846 846 846 847 847 847 848 849 849 850 850 851 851 852 852 852 852 852 851 850 850 850 851
757 760 781 778 771 783 780 778 779 777 779 779 777 777 779 775 773 778 782 788 790 785 778 778 784 782 783 784 784 788 790 792 793 795 796 798 800 801 803 805 807 810 811 814 817 819 821 822 824 825 826 826 827 826 826 827 828 828 829 830 832 833 836 839 839 839 840 840 841 842 842 844 845 845 846 846 846 847 847 848 848 849 850 850 851 851 853 853 853 853 853 852 851 850 850 850 850
759 759 766 762 764 781 777 770 774 773 774 775 778 781 779 775 777 780 781 789 790 779 772 771 775 778 780 782 784 786 788 790 792 793 796 798 799 800 803 805 807 810 811 814 817 819 821 822 823 824 826 826 827 827 826 827 827 828 829 830 831 833 836 838 839 838 839 840 840 842 842 844 844 845 846 846 846 847 847 848 848 850 851 851 851 852 853 853 853 853 853 852 851 850 850 850 849
763 762 760 760 762 772 770 767 772 771 773 777 781 780 774 779 786 782 780 784 781 770 766 767 770 774 777 779 783 785 787 789 790 793 795 797 799 800 803 804 806 809 811 814 816 819 820 821 823 823 825 826 826 827 827 827 827 828 829 830 831 833 835 837 839 838 838 839 840 842 842 844 844 844 846 846 846 847 848 848 849 850 850 851 851 852 853 853 853 853 852 851 850 849 849 849 849
763 768 762 762 762 766 766 765 768 770 774 777 780 781 780 788 792 788 787 783 774 767 763 765 769 771 775 779 782 785 787 788 790 793 794 796 798 800 802 804 806 809 811 813 816 818 819 821 822 823 824 826 826 827 827 828 828 829 829 830 831 832 834 837 838 837 839 840 840 841 842 844 845 845 846 846 846 847 848 848 849 850 850 851 851 852 852 852 853 852 852 851 850 849 848 848 848
761 767 765 762 762 764 765 763 768 771 773 776 781 788 790 792 792 795 798 786 773 768 765 767 770 772 776 779 781 784 786 788 790 792 793 796 798 800 802 804 806 808 811 813 815 816 817 820 822 823 824 825 826 827 827 828 829 829 830 830 831 832 833 835 837 837 839 840 841 841 842 844 844 845 846 846 847 847 848 849 849 850 850 851 851 852 852 852 852 852 851 851 850 849 848 848 847
761 762 765 766 764 763 765 768 772 773 774 778 786 794 795 791 792 798 799 785 772 767 768 770 772 776 778 779 781 783 786 788 789 791 794 797 799 801 802 803 805 807 810 812 814 815 817 819 821 822 824 825 825 826 827 828 829 829 830 830 831 832 833 835 837 837 838 840 840 841 843 844 844 844 845 846 847 848 848 849 849 850 850 851 851 852 852 852 852 851 851 850 850 849 848 848 847
759 759 763 768 767 765 768 772 773 774 778 780 787 797 796 790 795 802 796 780 771 769 772 772 774 778 779 779 780 783 786 787 788 791 794 797 799 801 802 803 804 806 809 811 813 815 816 818 820 822 823 824 825 826 827 827 828 829 829 830 830 831 833 835 836 837 838 839 840 841 842 843 843 844 845 846 847 848 848 849 849 850 850 851 851 852 852 852 851 851 851 850 850 849 848 848 847
757 759 766 770 768 768 769 774 774 775 784 783 785 797 800 797 799 800 791 778 770 771 775 775 776 779 779 780 782 783 785 786 789 791 794 797 799 800 802 803 803 806 808 810 812 815 816 818 820 822 823 824 825 826 826 827 828 828 829 829 830 830 832 833 834 836 838 840 841 842 842 841 842 844 845 846 847 848 848 849 850 850 850 851 851 852 852 852 852 851 851 851 850 849 848 847 846
758 758 772 776 771 776 774 774 774 776 786 784 785 803 810 806 803 797 788 781 773 773 777 777 777 779 780 781 783 784 784 786 790 792 794 796 798 800 802 803 803 806 808 810 812 814 815 818 820 822 823 824 825 826 826 827 828 828 829 829 830 830 831 832 833 835 838 840 842 842 842 841 842 844 845 846 847 848 848 849 850 850 851 851 851 852 851 852 851 851 851 850 850 848 847 847 845
761 760 772 779 782 789 779 772 774 779 787 784 789 811 816 808 802 795 788 784 780 778 779 778 778 779 780 782 783 784 784 786 789 791 794 795 797 799 801 802 803 805 807 810 812 813 815 817 820 822 823 824 825 826 827 827 828 828 829 829 830 831 831 832 833 835 837 839 841 842 842 843 844 845 846 847 847 848 849 849 849 850 851 851 851 852 851 851 851 851 850 849 849 847 847 846 845
766 766 770 774 788 797 782 773 776 785 789 782 790 812 817 808 800 795 789 786 785 782 780 779 779 779 780 782 784 785 784 786 788 790 793 794 796 798 800 802 803 806 808 810 811 812 815 817 819 821 822 824 824 826 827 827 828 828 829 830 831 831 832 833 834 836 838 839 841 842 843 843 844 845 846 847 847 848 848 849 849 850 851 851 851 851 851 850 850 850 849 849 848 847 847 846 845
763 775 778 767 784 800 785 773 774 784 790 782 790 809 816 809 799 794 789 787 789 786 781 779 778 779 780 782 783 785 785 785 787 788 791 793 795 798 800 802 804 806 807 809 811 813 815 817 819 820 822 824 824 826 827 828 829 829 830 830 831 832 832 833 834 836 837 839 840 842 843 844 844 845 846 847 847 847 848 848 849 850 851 851 851 851 851 851 851 851 850 849 848 848 847 845 845
762 772 777 768 785 799 787 782 778 778 788 788 793 807 813 807 797 793 789 788 792 788 782 779 779 779 780 781 782 784 785 786 786 787 790 792 794 797 799 802 804 806 807 809 812 813 815 817 819 820 822 824 824 826 827 828 829 830 830 831 832 832 832 833 834 836 837 839 840 842 843 844 845 846 847 847 847 847 847 848 848 850 851 851 851 852 851 851 851 851 850 850 849 848 846 844 845
768 765 772 778 790 793 789 793 783 777 789 792 793 800 802 799 794 792 789 788 790 787 782 780 778 779 780 780 781 783 785 787 786 786 789 792 794 797 799 802 804 805 808 809 812 813 814 817 818 820 822 823 825 826 828 829 829 830 831 831 832 832 832 833 834 836 837 839 840 842 843 844 845 846 847 848 847 847 848 848 849 850 851 851 851 851 851 851 851 851 850 850 850 849 847 845 845
776 771 777 789 791 792 794 792 781 782 797 797 795 799 795 793 793 791 788 786 786 783 780 779 777 778 780 780 781 783 784 786 786 786 788 791 794 796 798 801 803 805 807 809 811 813 815 817 818 820 822 823 825 827 828 829 830 831 831 832 833 833 833 834 835 836 837 839 840 842 844 845 846 847 848 848 848 848 849 849 849 850 851 851 851 851 851 851 851 851 850 850 850 849 847 846 845
775 769 772 788 793 792 789 783 775 778 798 804 801 802 797 793 793 791 787 783 783 781 779 779 777 777 778 779 780 782 784 783 782 784 787 790 793 796 798 801 802 804 806 809 812 813 815 817 819 821 822 823 825 827 828 829 830 831 831 832 833 833 834 834 836 836 837 839 841 842 844 845 846 847 848 849 849 849 849 849 850 851 851 851 851 851 850 851 852 851 851 850 849 848 847 846 846
769 764 766 779 789 786 776 777 773 767 791 808 801 802 804 797 792 789 784 782 783 781 780 781 778 778 777 777 779 780 782 780 779 783 786 789 792 795 798 800 802 804 806 809 811 813 815 817 819 821 822 824 825 826 827 828 829 830 831 832 833 833 835 835 836 837 837 839 841 843 844 845 846 848 848 849 849 850 850 850 851 851 851 851 852 851 851 851 851 851 851 850 849 848 846 845 845
767 766 765 768 775 777 770 773 771 765 783 794 786 794 804 800 793 788 784 784 784 779 779 781 779 778 777 776 778 779 780 778 777 781 783 787 791 793 797 798 801 803 805 809 810 812 815 816 818 820 822 823 824 825 827 828 829 830 830 831 832 833 835 836 836 837 838 839 842 843 844 846 847 848 849 849 850 850 850 850 851 851 851 852 852 852 852 852 851 851 851 850 849 848 846 845 845
767 766 764 763 765 773 772 769 768 767 776 781 776 780 785 787 789 788 787 784 778 773 774 776 776 778 778 777 777 778 779 779 778 780 781 784 788 791 795 797 800 802 805 807 809 811 814 815 818 820 821 823 824 825 826 827 829 830 830 831 832 833 834 835 836 837 838 840 842 843 845 846 847 848 848 849 849 850 850 851 851 851 851 852 852 852 852 852 852 851 851 850 849 848 846 845 845
768 765 766 762 759 770 776 772 770 769 771 776 777 776 775 780 783 780 779 776 772 770 770 771 773 776 777 774 775 776 778 780 780 780 780 782 786 790 793 796 798 801 804 805 808 810 812 814 817 819 821 822 823 825 826 827 829 830 831 831 832 833 834 835 836 837 838 840 842 843 845 846 847 848 848 849 849 850 850 850 851 851 851 852 852 852 852 852 852 851 850 850 849 849 846 844 845
766 763 765 761 752 757 766 768 768 767 768 770 774 782 786 787 787 780 773 772 773 773 772 773 772 771 773 773 773 774 774 777 780 780 779 780 784 788 791 794 797 799 802 804 806 808 810 813 816 818 820 821 823 824 826 827 828 830 831 832 832 833 835 835 836 837 838 840 841 843 844 845 846 847 848 848 849 849 850 850 851 851 851 852 852 852 851 851 851 851 851 850 849 849 847 846 846
767 759 757 757 751 751 759 764 767 774 777 769 769 790 799 790 786 784 778 778 780 777 775 776 774 772 773 774 773 772 772 773 776 777 778 779 782 787 790 793 795 798 800 802 804 806 809 812 814 817 819 820 822 824 825 827 828 830 830 832 832 833 834 835 836 837 838 840 841 842 844 845 846 847 847 848 849 849 850 850 851 851 851 851 852 851 851 851 851 850 850 850 849 849 849 848 848
772 754 745 750 753 757 763 765 770 781 781 763 759 784 802 798 793 788 784 787 786 782 780 778 776 776 776 776 773 771 771 772 773 774 775 777 780 784 789 791 793 795 798 800 802 804 807 810 813 816 818 819 821 823 825 826 827 829 830 831 832 833 834 835 836 837 838 839 840 841 843 844 845 846 847 848 848 849 850 850 850 851 851 851 851 851 851 850 850 850 850 851 850 850 850 849 848
770 750 746 753 758 764 765 764 769 773 769 761 755 765 791 806 803 791 786 793 794 788 785 781 778 778 777 778 774 770 770 770 772 774 774 775 778 782 786 789 791 793 795 797 800 803 806 809 812 814 816 818 820 822 824 825 826 828 829 830 831 833 834 835 836 837 838 839 840 841 842 844 845 846 847 847 848 849 849 850 850 850 851 851 851 851 851 850 850 850 851 851 851 850 850 849 848
761 748 753 756 758 762 760 763 767 763 772 782 766 759 787 806 801 796 794 795 797 793 787 784 782 780 778 778 777 772 769 768 769 772 773 774 777 780 783 786 789 790 793 796 798 801 805 808 811 813 815 817 819 821 823 824 826 827 828 830 831 832 833 834 836 837 838 839 840 841 842 843 844 845 846 846 847 848 849 849 850 850 850 851 851 851 850 851 850 851 851 851 851 850 850 850 849
754 750 756 755 757 759 760 766 767 769 789 796 773 764 790 804 798 803 807 802 803 801 791 784 782 780 778 777 776 774 769 767 768 768 770 774 775 778 781 784 787 788 790 794 796 799 803 807 810 812 814 816 818 820 822 823 825 826 827 829 830 831 832 834 836 837 838 839 840 841 842 842 843 844 845 846 846 847 848 849 849 850 850 850 850 850 850 850 851 851 851 850 850 850 850 850 849
754 757 761 762 762 760 764 767 768 789 804 790 769 763 783 804 800 796 802 801 801 804 796 787 783 780 780 779 778 779 776 769 767 767 768 772 775 776 779 782 784 787 788 792 795 799 802 805 808 811 813 815 817 818 821 822 824 825 827 828 829 831 832 833 835 836 837 839 839 840 841 842 842 843 844 845 845 846 847 848 848 849 849 849 850 850 850 850 850 850 850 850 850 850 850 850 849
757 762 763 768 772 772 778 776 778 805 809 781 767 763 775 802 803 791 794 794 794 801 797 790 787 784 781 780 777 778 780 774 767 768 768 770 773 775 777 780 782 785 787 791 794 797 801 803 806 810 812 814 816 817 819 821 823 824 826 827 829 830 831 832 833 835 836 837 838 839 840 841 842 842 842 843 844 845 846 847 847 848 848 849 849 849 849 849 849 849 849 850 850 849 850 850 849
762 765 766 779 791 798 803 794 789 800 791 769 765 768 779 797 799 794 795 794 793 796 794 788 785 782 779 777 774 774 780 779 770 768 769 768 771 774 775 778 781 783 787 790 792 793 797 802 805 808 810 812 814 816 818 820 821 823 824 826 827 829 830 831 832 833 834 836 837 838 839 840 841 841 841 842 843 843 844 845 846 847 847 848 848 849 849 849 849 849 849 849 849 849 849 849 849
766 766 769 786 798 809 813 797 787 786 772 757 759 771 787 796 796 794 793 794 793 788 784 781 778 776 776 774 774 775 778 781 776 770 769 768 769 772 774 777 779 782 785 787 789 791 796 801 804 806 809 811 813 815 817 819 820 821 823 824 826 828 829 830 831 832 833 834 835 836 837 838 839 840 840 841 842 842 843 844 845 846 847 847 848 848 848 848 849 849 849 849 849 848 848 848 848
761 753 758 776 779 790 799 787 782 782 768 757 763 781 797 801 796 788 784 786 786 780 776 775 771 770 772 772 773 776 779 782 779 774 770 767 768 771 773 775 778 781 784 786 788 790 793 799 803 805 807 809 812 814 816 817 819 820 821 823 824 826 827 828 830 831 831 832 833 834 835 836 837 838 839 840 841 841 842 843 844 845 846 846 847 847 847 848 848 848 848 848 848 848 848 848 847
757 745 757 770 759 763 777 772 767 772 775 771 770 781 791 789 786 782 781 779 774 773 774 776 776 771 771 774 773 775 780 782 778 775 773 768 767 770 772 774 777 780 782 785 787 789 791 796 800 803 805 808 810 812 814 816 817 819 820 821 822 824 825 826 828 829 829 830 832 833 834 835 835 836 837 838 839 840 841 841 842 843 844 845 845 846 846 847 847 847 847 847 847 847 847 847 847
761 756 764 756 741 751 772 775 762 766 788 783 766 777 788 785 786 785 786 782 772 771 776 780 782 776 773 776 774 773 778 778 776 776 778 774 770 770 771 773 776 778 780 783 785 788 790 793 797 801 804 806 808 810 812 814 816 817 818 820 821 822 823 824 825 827 828 829 830 831 832 833 834 834 835 836 837 839 839 840 841 842 842 843 844 845 845 846 846 846 846 846 846 846 846 846 846
764 766 760 745 743 757 773 788 785 784 797 783 759 769 784 790 797 793 790 790 779 773 778 784 786 783 780 779 777 775 775 775 775 777 779 779 775 772 771 772 774 776 779 781 784 786 789 791 794 798 801 804 806 808 810 812 813 815 816 818 819 820 821 822 823 824 826 827 828 829 830 831 832 833 834 835 835 837 838 839 840 840 841 842 842 843 844 844 845 845 845 845 845 845 845 845 845
756 758 751 753 771 780 780 793 799 795 797 787 764 759 772 788 798 796 794 794 786 778 780 787 791 791 787 782 781 779 777 778 778 778 780 781 779 778 775 773 775 777 778 780 783 785 788 790 792 795 799 802 804 806 808 810 812 813 814 815 817 818 819 820 821 822 823 825 825 827 828 829 830 831 832 833 834 834 836 837 838 838 839 840 840 841 842 842 843 843 843 843 843 844 844 844 844
752 754 751 754 769 777 777 783 790 792 796 793 776 771 789 802 797 796 797 791 786 784 784 787 790 791 791 786 785 783 781 782 781 779 780 781 781 784 783 778 776 778 780 781 782 784 786 788 790 792 796 799 802 804 806 807 809 811 811 813 815 816 817 818 819 820 821 822 823 824 825 826 828 829 830 831 832 833 834 834 835 836 837 837 838 839 840 840 841 841 842 842 841 841 842 842 842
763 767 765 762 764 764 769 774 776 783 796 798 789 793 811 808 791 792 793 786 784 784 784 787 785 787 790 788 787 785 782 783 781 779 779 780 782 786 785 782 778 779 783 783 780 781 785 789 790 790 793 796 798 801 804 805 807 809 809 810 812 813 815 816 817 818 819 820 821 822 823 824 825 827 828 829 830 831 832 832 833 834 834 835 836 837 838 838 839 840 840 840 840 840 840 841 841
768 772 769 771 773 774 788 793 774 766 779 787 788 800 813 802 786 787 786 783 783 780 781 786 784 786 789 786 786 785 783 783 783 780 779 780 782 784 783 782 781 781 783 784 781 781 785 788 789 790 791 794 795 797 801 803 806 809 808 807 809 811 813 814 815 816 816 817 818 819 821 822 823 824 825 826 827 828 829 830 831 831 832 833 834 835 836 836 837 837 838 838 838 839 839 839 839